Location: Recife
(8.0585°S, 34.8848°W)
Time: 09:30:23
(UTC-03:00)

Courier 1B Rocket - Pass Details

Date: 23 April 2026
Orbit: 920 x 1201 km, 28.2° (Epoch: 13 May)

Event Time Altitude Azimuth Distance (km) Brightness Sun altitude
Rises 23:19:48 0° 319° (NW) 3,738 - -85.2°
Reaches altitude 10° 23:22:50 10° 328° (NNW) 2,744 - -85.1°
Maximum altitude 23:28:38 32° 30° (NNE) 1,562 - -84.5°
Drops below altitude 10° 23:34:11 10° 92° (E) 2,628 - -83.7°
Sets 23:37:02 0° 101° (ESE) 3,558 - -83.3°
